Bowling Green, Kentucky, United States (42101)
Lat: 36.99N, Lon: 86.44W
Wx Zone: KYZ071
Local Info
Past Weather Observations for Thursday, November 20, 2014

NOTE: This archive is for the closest National Weather Service station to Bowling Green. Information may differ from the station used for current weather conditions.

Click here for Long-term Archive

Time Weather Temperature Dewpoint Humidity Pressure Winds Precip Visibility
23:55
Clear
23°F / -5°C 19°F / -7°C 86% 30.33 in
(1027 mb)
Calm - 10SM
23:35
Clear
23°F / -5°C 19°F / -7°C 86% 30.33 in
(1027 mb)
Calm - 10SM
23:15
Clear
23°F / -5°C 19°F / -7°C 86% 30.33 in
(1027 mb)
Calm - 10SM
22:55
Clear
25°F / -4°C 19°F / -7°C 80% 30.33 in
(1027 mb)
Calm - 10SM
22:35
Clear
25°F / -4°C 19°F / -7°C 80% 30.3 in
(1026 mb)
Calm - 10SM
22:15
Clear
25°F / -4°C 19°F / -7°C 80% 30.3 in
(1026 mb)
Calm - 10SM
21:55
Clear
27°F / -3°C 19°F / -7°C 74% 30.3 in
(1026 mb)
Calm - 10SM
21:35
Clear
25°F / -4°C 19°F / -7°C 80% 30.3 in
(1026 mb)
Calm - 10SM
21:15
Clear
27°F / -3°C 21°F / -6°C 80% 30.3 in
(1026 mb)
Calm - 10SM
20:55
Clear
27°F / -3°C 19°F / -7°C 74% 30.27 in
(1025 mb)
Calm - 10SM
20:35
Clear
27°F / -3°C 19°F / -7°C 74% 30.27 in
(1025 mb)
Calm - 10SM
20:15
Clear
27°F / -3°C 19°F / -7°C 74% 30.27 in
(1025 mb)
NNW 3.5 mph
(NNW 6 kph)
- 10SM
19:55
Clear
28°F / -2°C 19°F / -7°C 69% 30.24 in
(1024 mb)
Calm - 10SM
19:35
Clear
28°F / -2°C 19°F / -7°C 69% 30.24 in
(1024 mb)
Calm - 10SM
19:15
Clear
30°F / -1°C 19°F / -7°C 64% 30.24 in
(1024 mb)
Calm - 10SM
18:55
Clear
32°F / 0°C 19°F / -7°C 60% 30.24 in
(1024 mb)
Calm - 10SM
18:35
Clear
32°F / 0°C 19°F / -7°C 60% 30.24 in
(1024 mb)
NW 3.5 mph
(NW 6 kph)
- 10SM
18:15
Clear
32°F / 0°C 21°F / -6°C 64% 30.24 in
(1024 mb)
NW 4.6 mph
(NW 7 kph)
- 10SM
17:55
Clear
32°F / 0°C 21°F / -6°C 64% 30.24 in
(1024 mb)
NW 3.5 mph
(NW 6 kph)
- 10SM
17:35
Clear
32°F / 0°C 21°F / -6°C 64% 30.21 in
(1023 mb)
Calm - 10SM
17:15
Clear
34°F / 1°C 21°F / -6°C 60% 30.21 in
(1023 mb)
W 3.5 mph
(W 6 kph)
- 10SM
16:55
Clear
34°F / 1°C 19°F / -7°C 56% 30.21 in
(1023 mb)
SSW 3.5 mph
(SSW 6 kph)
- 10SM
16:35
Clear
36°F / 2°C 19°F / -7°C 52% 30.21 in
(1023 mb)
W 3.5 mph
(W 6 kph)
- 10SM
16:15
Clear
37°F / 3°C 19°F / -7°C 48% 30.21 in
(1023 mb)
W 3.5 mph
(W 6 kph)
- 10SM
15:55
Clear
39°F / 4°C 19°F / -7°C 45% 30.18 in
(1022 mb)
SSW 4.6 mph
(SSW 7 kph)
- 10SM
15:35
Clear
39°F / 4°C 19°F / -7°C 45% 30.18 in
(1022 mb)
SSW 6.9 mph
(SSW 11 kph)
- 10SM
15:15
Clear
41°F / 5°C 19°F / -7°C 42% 30.18 in
(1022 mb)
SSW 10.4 mph
(SSW 17 kph)
- 10SM
14:55
Clear
41°F / 5°C 19°F / -7°C 42% 30.18 in
(1022 mb)
SSW 9.2 mph
(SSW 15 kph)
- 10SM
14:35
Clear
41°F / 5°C 18°F / -8°C 39% 30.18 in
(1022 mb)
W 8.1 mph
(W 13 kph)
- 10SM
14:15
Clear
41°F / 5°C 19°F / -7°C 42% 30.21 in
(1023 mb)
SSW 10.4 mph
(SSW 17 kph)
- 10SM
13:55
Clear
41°F / 5°C 19°F / -7°C 42% 30.18 in
(1022 mb)
SSW 6.9 mph
(SSW 11 kph)
- 10SM
13:35
Clear
41°F / 5°C 19°F / -7°C 42% 30.18 in
(1022 mb)
SSW 6.9 mph
(SSW 11 kph)
- 10SM
13:15
Clear
39°F / 4°C 19°F / -7°C 45% 30.21 in
(1023 mb)
SSW 9.2 mph
(SSW 15 kph)
- 10SM
12:55
Clear
41°F / 5°C 19°F / -7°C 42% 30.21 in
(1023 mb)
SSW 10.4 mph
(SSW 17 kph)
- 10SM
12:35
Clear
39°F / 4°C 19°F / -7°C 45% 30.21 in
(1023 mb)
W 9.2 mph
(W 15 kph)
- 10SM
12:15
Clear
39°F / 4°C 19°F / -7°C 45% 30.21 in
(1023 mb)
SSW 12.7 mph
(SSW 20 kph)
- 10SM
11:55
Clear
39°F / 4°C 21°F / -6°C 48% 30.21 in
(1023 mb)
SSW 10.4 mph
(SSW 17 kph)
- 10SM
11:35
Clear
37°F / 3°C 19°F / -7°C 48% 30.24 in
(1024 mb)
W 5.8 mph
(W 9 kph)
- 10SM
11:15
Clear
37°F / 3°C 19°F / -7°C 48% 30.24 in
(1024 mb)
WNW 11.5 mph
(WNW 19 kph)
- 10SM
10:55
Clear
37°F / 3°C 19°F / -7°C 48% 30.24 in
(1024 mb)
NW 9.2 mph
(NW 15 kph)
- 10SM
10:35
Clear
36°F / 2°C 19°F / -7°C 52% 30.24 in
(1024 mb)
W 5.8 mph
(W 9 kph)
- 10SM
10:15
Clear
36°F / 2°C 21°F / -6°C 56% 30.24 in
(1024 mb)
WNW 6.9 mph
(WNW 11 kph)
- 10SM
09:55
Clear
36°F / 2°C 19°F / -7°C 52% 30.24 in
(1024 mb)
WNW 9.2 mph
(WNW 15 kph)
- 10SM
09:35
Clear
34°F / 1°C 19°F / -7°C 56% 30.24 in
(1024 mb)
NW 10.4 mph
(NW 17 kph)
- 10SM
09:15
Clear
34°F / 1°C 21°F / -6°C 60% 30.24 in
(1024 mb)
WNW 6.9 mph
(WNW 11 kph)
- 10SM
08:55
Clear
34°F / 1°C 21°F / -6°C 60% 30.24 in
(1024 mb)
W 5.8 mph
(W 9 kph)
- 10SM
08:35
Clear
32°F / 0°C 21°F / -6°C 64% 30.24 in
(1024 mb)
W 5.8 mph
(W 9 kph)
- 10SM
08:15
Clear
32°F / 0°C 21°F / -6°C 64% 30.24 in
(1024 mb)
WNW 4.6 mph
(WNW 7 kph)
- 10SM
07:55
Clear
30°F / -1°C 23°F / -5°C 75% 30.24 in
(1024 mb)
WNW 5.8 mph
(WNW 9 kph)
- 10SM
07:35
Clear
30°F / -1°C 23°F / -5°C 75% 30.21 in
(1023 mb)
W 3.5 mph
(W 6 kph)
- 10SM
07:15
Clear
28°F / -2°C 23°F / -5°C 80% 30.21 in
(1023 mb)
Calm - 10SM
06:55
Clear
27°F / -3°C 21°F / -6°C 80% 30.21 in
(1023 mb)
Calm - 10SM
06:35
Clear
28°F / -2°C 23°F / -5°C 80% 30.18 in
(1022 mb)
Calm - 10SM
06:15
Clear
28°F / -2°C 23°F / -5°C 80% 30.18 in
(1022 mb)
NW 3.5 mph
(NW 6 kph)
- 10SM
05:55
Clear
28°F / -2°C 21°F / -6°C 74% 30.18 in
(1022 mb)
NW 3.5 mph
(NW 6 kph)
- 10SM
05:35
Partly Cloudy
28°F / -2°C 23°F / -5°C 80% 30.18 in
(1022 mb)
WNW 3.5 mph
(WNW 6 kph)
- 10SM
05:15
Partly Cloudy
28°F / -2°C 23°F / -5°C 80% 30.18 in
(1022 mb)
Calm - 10SM
04:55
Clear
30°F / -1°C 23°F / -5°C 75% 30.18 in
(1022 mb)
Calm - 10SM
04:35
Clear
30°F / -1°C 25°F / -4°C 80% 30.15 in
(1021 mb)
NW 3.5 mph
(NW 6 kph)
- 10SM
04:15
Clear
32°F / 0°C 25°F / -4°C 75% 30.15 in
(1021 mb)
NW 4.6 mph
(NW 7 kph)
- 10SM
03:55
Clear
32°F / 0°C 25°F / -4°C 75% 30.15 in
(1021 mb)
NW 3.5 mph
(NW 6 kph)
- 10SM
03:35
Partly Cloudy
32°F / 0°C 25°F / -4°C 75% 30.15 in
(1021 mb)
Calm - 10SM
03:15
Overcast
36°F / 2°C 25°F / -4°C 65% 30.15 in
(1021 mb)
WNW 3.5 mph
(WNW 6 kph)
- 10SM
02:55
Overcast
36°F / 2°C 27°F / -3°C 70% 30.15 in
(1021 mb)
WNW 3.5 mph
(WNW 6 kph)
- 10SM
02:35
Overcast
36°F / 2°C 25°F / -4°C 65% 30.15 in
(1021 mb)
W 3.5 mph
(W 6 kph)
- 10SM
02:15
Overcast
36°F / 2°C 25°F / -4°C 65% 30.15 in
(1021 mb)
WNW 4.6 mph
(WNW 7 kph)
- 10SM
01:55
Overcast
36°F / 2°C 25°F / -4°C 65% 30.15 in
(1021 mb)
Calm - 10SM
01:35
Overcast
37°F / 3°C 27°F / -3°C 65% 30.15 in
(1021 mb)
W 4.6 mph
(W 7 kph)
- 10SM
01:15
Overcast
36°F / 2°C 27°F / -3°C 70% 30.15 in
(1021 mb)
WNW 3.5 mph
(WNW 6 kph)
- 10SM
00:55
Overcast
36°F / 2°C 28°F / -2°C 75% 30.15 in
(1021 mb)
Calm - 10SM
00:35
Overcast
34°F / 1°C 28°F / -2°C 81% 30.15 in
(1021 mb)
Calm - 10SM
00:15
Mostly Cloudy
34°F / 1°C 28°F / -2°C 81% 30.15 in
(1021 mb)
Calm - 10SM
Time Weather Temperature Dewpoint Humidity Pressure Winds Precip Visibility


Weather for websites

WeatherForYou.com, LLC is not responsible for any damages or problems caused by this service. Current weather conditions are obtained from the closest station including government and personal stations which may have varying degrees of accuracy. Weather forecasts are derived from the NOAA NDFD. Like all things, this site belongs to Jesus Christ... He just trusts me to maintain it. If you have any questions or comments email webmaster@weatherforyou.com

Copyright © 2014, WeatherForYou.com LLC. All rights reserved.